Find Local Weather

World > North America > United States > New York

Middletown, New York Regional Weather

Lat: 41.45N, Lon: 74.42W
Wx Zone: NYZ067
Warning FLW WEATHER ALERT - (More Info. Click Here) Warning
Feedback
Expires:201806181000;;718670
ASUS41 KALY 180910
RWRALY

NEW YORK STATE HOURLY WEATHER ROUNDUP
NATIONAL WEATHER SERVICE ALBANY NY
500 AM EDT MON JUN 18 2018

NOTE: "FAIR" INDICATES FEW OR NO CLOUDS BELOW 12,000 FEET WITH NO
SIGNIFICANT WEATHER AND/OR NO OBSTRUCTIONS TO VISIBILITY.


NYZ032-033-038>043-046>054-057>066-NYZ062>081-082-084-181000-
EAST

  
CITY           SKY/WX    TMP DP  RH WIND       PRES   REMARKS
ALBANY         FAIR      72  56  57 S9        29.97S                  
GLENS FALLS    FAIR      68  58  70 S8        29.94F                  
POUGHKEEPSIE   FAIR      63  58  83 CALM      30.01F                  
NEWBURGH       PTCLDY    70  63  78 CALM      30.04F                  
MONTGOMERY     FAIR      68  62  81 SW7       30.02F                  
WHITE PLAINS   FAIR      69  60  73 CALM      30.04S                  
ISLIP          FAIR      68  67  96 SW6       30.06S                  
NEW YORK CITY  FAIR      75  63  66 SW8       30.03F                  
CENTRAL PARK   FAIR      73  63  70 SW5       30.07S                  
$$


SKY/WX - Weather  TMP - Temperature  DP - Dewpoint  RH - Relative Humidity
WIND - Wind Direction/Speed PRES - Barometric Pressure